{"data":{"norad_id":49134,"intl_designator":"2021-082E","name":"STARLINK-3078","alt_names":[],"object_type":"PAYLOAD","status":"ACTIVE","operator":null,"country":"US","launch_date":"2021-09-14","launch_site_code":"AFWTR","launch_vehicle":null,"mission":null,"orbit_class":"UNKNOWN","rcs_meters":null,"size_class":null,"mass_kg":null,"dimensions":null,"purposes":["comms"],"wikipedia_slug":null,"has_3d_model":false,"image_url":null,"decayed_at":null,"tle_current":{"epoch":"2026-09-19T23:45:05.230368Z","epoch_age_seconds":80389,"freshness":"FRESH","line1":"1 49134U 21082E   26262.98964387  .00000316  00000+0  34314-4 0  9994","line2":"2 49134  69.9998 164.5604 0002919 270.3166  89.7659 14.98331053276281","mean_motion":14.98331053,"eccentricity":0.0002919,"inclination_deg":69.9998,"raan_deg":164.5604,"arg_perigee_deg":270.3166,"mean_anomaly_deg":89.7659,"bstar":3.4314e-5,"rev_number":27628,"period_min":96.10693158343,"perigee_km":570.02387427634,"apogee_km":574.08139498503,"semimajor_km":6950.1896346307,"source":"CELESTRAK","updated_at":"2026-09-20T09:00:39.247234Z"}}}